Great Bend, KS

6:48 AM CDT on July 25, 2017 (GMT -0500)
Great Bend Municipal

Weather History for KGBD - January, 2012

Change the Weather History Date:

Sunday, January 22, 2012

  Actual Average Record
Temperature  
Mean Temperature 41 °F -  
Max Temperature 50 °F 45 °F 52 °F (2017)
Min Temperature 32 °F 22 °F 21 °F (2015)
Degree Days  
Heating Degree Days 24    
Moisture  
Dew Point 28 °F    
Average Humidity 66    
Maximum Humidity 93    
Minimum Humidity 40    
Precipitation  
Precipitation 0.00 in - - ()
Sea Level Pressure  
Sea Level Pressure 29.49 in    
Wind  
Wind Speed 21 mph (WSW)    
Max Wind Speed 30 mph    
Max Gust Speed 43 mph    
Visibility 10 miles    
Events      
Averages and records for this station are not official NWS values.
T = Trace of Precipitation, MM = Missing Value Source: NWS Daily Summary

Daily Weather History Graph

Daily Weather History Graph

Search for Another Location

Airport or City:

Trip Planner

Search our weather history database for the weather conditions in past years. The results will help you decide how hot, cold, wet, or windy it might be!

Date:

Astronomy

Jan. 22, 2012 Rise Set
Actual Time 7:48 AM CST 5:46 PM CST
Civil Twilight 7:19 AM CST 6:14 PM CST
Nautical Twilight 6:47 AM CST 6:46 PM CST
Astronomical Twilight 6:15 AM CST 7:18 PM CST
Moon 7:05 AM CST (1/22) 5:29 PM CST (1/22)
Length of Visible Light 10h 55m
Length of Day
9h 58m
Waning Crescent, 0% of the Moon is Illuminated
Jan 22
Waning Crescent
Jan 23
New
Jan 30
First Quarter
Feb 7
Full
Feb 14
Last Quarter

Hourly Weather History & Observations

Time (CST) Temp. Windchill Dew Point Humidity Pressure Visibility Wind Dir Wind Speed Gust Speed Precip Events Conditions
12:15 AM 32.0 °F 18.9 °F 19.4 °F 60% 29.47 in 10.0 mi South 24.2 mph 29.9 mph N/A   Clear
12:35 AM 33.8 °F 21.0 °F 19.4 °F 56% 29.45 in 10.0 mi South 25.3 mph 33.4 mph N/A   Clear
12:55 AM 33.8 °F 21.0 °F 19.4 °F 56% 29.44 in 10.0 mi South 25.3 mph 34.5 mph N/A   Clear
1:15 AM 33.8 °F 21.0 °F 21.2 °F 60% 29.43 in 10.0 mi South 25.3 mph 32.2 mph N/A   Clear
1:35 AM 33.8 °F 20.5 °F 21.2 °F 60% 29.42 in 10.0 mi South 27.6 mph 34.5 mph N/A   Clear
1:55 AM 33.8 °F 20.8 °F 21.2 °F 60% 29.42 in 10.0 mi South 26.5 mph 32.2 mph N/A   Clear
2:15 AM 33.8 °F 20.5 °F 21.2 °F 60% 29.41 in 10.0 mi South 27.6 mph 33.4 mph N/A   Clear
2:55 AM 33.8 °F 21.3 °F 23.0 °F 65% 29.41 in 10.0 mi South 24.2 mph 33.4 mph N/A   Clear
3:15 AM 33.8 °F 21.9 °F 23.0 °F 65% 29.40 in 10.0 mi South 21.9 mph 29.9 mph N/A   Clear
3:35 AM 33.8 °F 21.3 °F 24.8 °F 70% 29.40 in 10.0 mi South 24.2 mph 29.9 mph N/A   Clear
3:55 AM 35.6 °F 24.0 °F 24.8 °F 65% 29.38 in 10.0 mi South 23.0 mph 31.1 mph N/A   Clear
4:15 AM 33.8 °F 21.9 °F 24.8 °F 70% 29.38 in 10.0 mi South 21.9 mph 29.9 mph N/A   Clear
4:35 AM 33.8 °F 21.3 °F 24.8 °F 70% 29.37 in 10.0 mi South 24.2 mph 27.6 mph N/A   Clear
4:55 AM 33.8 °F 21.3 °F 24.8 °F 70% 29.36 in 10.0 mi South 24.2 mph - N/A   Clear
5:15 AM 33.8 °F 22.5 °F 24.8 °F 70% 29.36 in 10.0 mi South 19.6 mph 23.0 mph N/A   Clear
5:55 AM 33.8 °F 22.2 °F 24.8 °F 70% 29.35 in 10.0 mi South 20.7 mph 25.3 mph N/A   Clear
6:15 AM 33.8 °F 23.2 °F 24.8 °F 70% 29.35 in 10.0 mi South 17.3 mph 25.3 mph N/A   Clear
6:35 AM 33.8 °F 24.3 °F 24.8 °F 70% 29.35 in 10.0 mi South 13.8 mph - N/A   Clear
6:55 AM 33.8 °F 24.8 °F 24.8 °F 70% 29.35 in 10.0 mi South 12.7 mph 18.4 mph N/A   Clear
7:15 AM 33.8 °F 24.3 °F 26.6 °F 75% 29.35 in 10.0 mi South 13.8 mph 20.7 mph N/A   Clear
7:35 AM 33.8 °F 23.9 °F 26.6 °F 75% 29.34 in 10.0 mi South 15.0 mph - N/A   Clear
7:55 AM 33.8 °F 23.5 °F 26.6 °F 75% 29.33 in 10.0 mi South 16.1 mph - N/A   Clear
8:15 AM 33.8 °F 23.9 °F 26.6 °F 75% 29.33 in 10.0 mi South 15.0 mph - N/A   Clear
8:55 AM 33.8 °F 25.8 °F 26.6 °F 75% 29.33 in 10.0 mi South 10.4 mph - N/A   Clear
9:15 AM 35.6 °F 28.0 °F 28.4 °F 75% 29.35 in 10.0 mi SSW 10.4 mph - N/A   Clear
9:35 AM 37.4 °F 28.5 °F 28.4 °F 70% 29.35 in 10.0 mi SSW 15.0 mph - N/A   Clear
9:55 AM 39.2 °F 30.8 °F 28.4 °F 65% 29.35 in 10.0 mi South 15.0 mph - N/A   Clear
10:15 AM 39.2 °F 32.0 °F 30.2 °F 70% 29.36 in 10.0 mi SSW 11.5 mph 18.4 mph N/A   Clear
10:35 AM 42.8 °F 35.1 °F 30.2 °F 61% 29.35 in 10.0 mi South 16.1 mph - N/A   Clear
10:55 AM 44.6 °F 37.4 °F 32.0 °F 61% 29.35 in 10.0 mi SSW 16.1 mph 20.7 mph N/A   Clear
11:15 AM 48.2 °F - 30.2 °F 50% 29.34 in 10.0 mi SW 12.7 mph - N/A   Clear
11:35 AM 48.2 °F - 30.2 °F 50% 29.35 in 10.0 mi SW 15.0 mph - N/A   Clear
11:55 AM 48.2 °F - 30.2 °F 50% 29.35 in 10.0 mi SW 12.7 mph - N/A   Clear
12:15 PM 48.2 °F - 30.2 °F 50% 29.34 in 10.0 mi WSW 12.7 mph - N/A   Partly Cloudy
12:35 PM 48.2 °F - 28.4 °F 46% 29.36 in 10.0 mi West 12.7 mph - N/A   Mostly Cloudy
12:55 PM 48.2 °F - 28.4 °F 46% 29.36 in 10.0 mi WNW 10.4 mph - N/A   Mostly Cloudy
1:15 PM 48.2 °F - 28.4 °F 46% 29.34 in 10.0 mi NW 17.3 mph 20.7 mph N/A   Overcast
1:35 PM 50.0 °F - 26.6 °F 40% 29.34 in 10.0 mi NW 19.6 mph 24.2 mph N/A   Scattered Clouds
2:15 PM 48.2 °F - 26.6 °F 43% 29.36 in 10.0 mi NNW 26.5 mph 31.1 mph N/A   Overcast
2:35 PM 46.4 °F 38.7 °F 26.6 °F 46% 29.37 in 10.0 mi NNW 20.7 mph 27.6 mph N/A   Overcast
3:15 PM 46.4 °F 38.7 °F 26.6 °F 46% 29.42 in 10.0 mi NNW 20.7 mph 31.1 mph N/A   Overcast
3:35 PM 44.6 °F 36.1 °F 28.4 °F 53% 29.44 in 10.0 mi NNW 21.9 mph 29.9 mph N/A   Overcast
3:55 PM 41.0 °F 31.1 °F 32.0 °F 70% 29.47 in 9.0 mi NNW 23.0 mph 31.1 mph N/A   Overcast
4:15 PM 41.0 °F 29.8 °F 35.6 °F 81% 29.50 in 10.0 mi NNW 29.9 mph 38.0 mph N/A   Overcast
4:35 PM 39.2 °F 28.0 °F 33.8 °F 81% 29.52 in 8.0 mi North 26.5 mph 42.6 mph N/A   Overcast
4:55 PM 39.2 °F 29.8 °F 35.6 °F 87% 29.55 in 10.0 mi North 18.4 mph 32.2 mph N/A   Overcast
5:15 PM 39.2 °F 29.6 °F 33.8 °F 81% 29.58 in 10.0 mi North 19.6 mph 29.9 mph N/A   Overcast
5:35 PM 37.4 °F 26.4 °F 33.8 °F 87% 29.60 in 10.0 mi NNW 23.0 mph 31.1 mph N/A   Overcast
6:15 PM 35.6 °F 27.5 °F 33.8 °F 93% 29.65 in 10.0 mi NW 11.5 mph - N/A   Mostly Cloudy
6:35 PM 37.4 °F 30.3 °F 33.8 °F 87% 29.67 in 10.0 mi NW 10.4 mph - N/A   Overcast
6:55 PM 37.4 °F 29.8 °F 33.8 °F 87% 29.68 in 10.0 mi NNW 11.5 mph - N/A   Overcast
7:15 PM 39.2 °F 28.7 °F 32.0 °F 75% 29.70 in 10.0 mi NNW 23.0 mph 27.6 mph N/A   Overcast
7:35 PM 39.2 °F 29.6 °F 30.2 °F 70% 29.72 in 10.0 mi NNW 19.6 mph 25.3 mph N/A   Overcast
7:55 PM 39.2 °F 30.5 °F 30.2 °F 70% 29.73 in 10.0 mi NNW 16.1 mph - N/A   Overcast
8:15 PM 37.4 °F 28.9 °F 30.2 °F 75% 29.74 in 10.0 mi NW 13.8 mph - N/A   Overcast
8:35 PM 37.4 °F 28.5 °F 30.2 °F 75% 29.77 in 10.0 mi WNW 15.0 mph - N/A   Mostly Cloudy
8:55 PM 37.4 °F 27.8 °F 30.2 °F 75% 29.78 in 10.0 mi WNW 17.3 mph 25.3 mph N/A   Overcast
9:15 PM 39.2 °F 28.5 °F 28.4 °F 65% 29.78 in 10.0 mi NW 24.2 mph 31.1 mph N/A   Overcast
9:35 PM 39.2 °F 29.0 °F 26.6 °F 61% 29.77 in 10.0 mi NNW 21.9 mph 29.9 mph N/A   Scattered Clouds
9:55 PM 39.2 °F 29.0 °F 26.6 °F 61% 29.75 in 10.0 mi NNW 21.9 mph 32.2 mph N/A   Clear
10:15 PM 39.2 °F 29.0 °F 24.8 °F 56% 29.76 in 10.0 mi NW 21.9 mph 28.8 mph N/A   Clear
10:35 PM 37.4 °F 27.8 °F 26.6 °F 65% 29.78 in 10.0 mi WNW 17.3 mph - N/A   Clear
10:55 PM 37.4 °F 27.8 °F 26.6 °F 65% 29.79 in 10.0 mi WNW 17.3 mph - N/A   Clear
11:15 PM 35.6 °F 25.5 °F 26.6 °F 70% 29.80 in 10.0 mi WNW 17.3 mph - N/A   Clear
11:35 PM 35.6 °F 24.5 °F 26.6 °F 70% 29.80 in 10.0 mi WNW 20.7 mph - N/A   Clear
11:55 PM 35.6 °F 24.5 °F 26.6 °F 70% 29.81 in 10.0 mi WNW 20.7 mph 25.3 mph N/A   Clear